[[{"header":{"parameterUnit":"m.s-1","parameterCategory":1,"la1":30.2991,"la2":30.254,"lo1":-89.0895,"lo2":-89.0444,"dy":0.0017,"dx":0.0017,"nx":28,"ny":28,"refTime":"2023-10-11T03:00:00:Z","depth":0,"parameterNumber":2,"parameterNumberName":"U-component_of_WINDS"},"data":[0,0,0,0,0,0,0,0,0,0,0,0,0,0,0,0,0,0,0,0,0,0,0,0,0,0,0,0,0,0,0,0,0,0,0,0,0,0,0,0,0,0,0,0,0,0,0,0,0,0,0,0,0,0,0,0,0,0,-6.0682,-6.0682,0,-6.0652,-6.0652,-6.0652,-6.05,-6.0497,-6.0493,-6.049,-6.0463,-6.0466,-6.0469,0,0,0,0,0,0,0,0,0,0,0,0,0,-6.0611,-6.0613,-6.0682,-6.0682,-6.0681,-6.0653,-6.0652,-6.0652,-6.0501,-6.0497,-6.0492,-6.0488,-6.0463,-6.0466,-6.0469,0,0,0,0,0,0,0,0,0,0,0,0,0,-6.0618,-6.0614,-6.0682,-6.0603,-6.0595,-6.0653,-6.0652,-6.0652,-6.0502,-6.0496,-6.0491,-6.0486,-6.0461,-6.0465,-6.0469,-6.0602,0,0,-6.0482,-6.0483,0,0,0,0,0,0,0,0,-6.0618,-6.0621,-6.0615,-6.0608,-6.06,-6.0574,-6.0617,-6.0635,-6.0503,-6.0538,-6.049,-6.0483,-6.0505,-6.0505,-6.0512,-6.0601,-6.06,-6.0482,-6.0484,-6.0486,-6.0487,0,0,0,0,0,0,0,-6.0617,-6.0621,-6.067,-6.0615,-6.0606,-6.0569,-6.0564,-6.062,-6.0552,-6.0534,-6.0523,-6.0521,-6.05,-6.0508,-6.051,-6.06,-6.0482,-6.0485,-6.0488,-6.0489,-6.0796,-6.0801,0,0,0,0,0,0,-6.0628,-6.0622,-6.0671,-6.067,-6.0596,-6.0575,-6.0569,-6.0588,-6.0551,-6.054,-6.0526,-6.0514,-6.0504,-6.0505,-6.0508,-6.0661,-6.0486,-6.049,-6.0492,-6.079,-6.0797,-6.0803,0,0,0,0,0,0,-6.0627,-6.0634,-6.0673,-6.0643,-6.0645,-6.0582,-6.0604,-6.059,-6.0598,-6.0545,-6.0532,-6.0547,-6.05,-6.0503,-6.0579,-6.0658,-6.0492,-6.0495,-6.0783,-6.0792,-6.08,-6.0967,0,0,0,0,0,0,-6.0625,-6.0634,-6.0684,-6.0645,-6.0647,-6.0744,-6.0609,-6.0594,-6.0605,-6.059,-6.0561,-6.0551,-6.0496,-6.0574,-6.0584,-6.066,-6.0498,-6.0776,-6.0787,-6.0797,-6.0955,-6.0981,-6.1003,0,0,0,0,0,-6.0623,-6.0733,-6.0687,-6.0694,-6.0707,-6.0749,-6.075,-6.0683,-6.0612,-6.0661,-6.0627,-6.0552,-6.0648,-6.0584,-6.0593,-6.0672,-6.0771,-6.0784,-6.0796,-6.0944,-6.0976,-6.1002,0,0,0,0,0,0,-6.0785,-6.0727,-6.0675,-6.0775,-6.0768,-6.0723,-6.0783,-6.0719,-6.0733,-6.0718,-6.0636,-6.0631,-6.072,-6.0703,-6.0633,-6.0798,-6.0696,-6.0712,-6.0805,-6.0835,-6.0859,-6.0861,-6.0502,0,0,0,0,0,-6.0832,-6.0869,-6.0817,-6.0911,-6.0909,-6.0848,-6.0863,-6.0812,-6.0802,-6.0798,-6.0769,-6.0764,-6.0792,-6.0812,-6.0836,-6.0951,-6.0943,-6.101,-6.1034,-6.1054,-6.1069,-6.1128,-6.1157,-6.0845,-6.0845,-6.0845,0,0,-6.093,-6.0903,-6.0932,-6.0942,-6.0931,-6.0972,-6.0846,-6.0896,-6.0926,-6.0806,-6.0876,-6.0855,-6.0843,-6.094,-6.0981,-6.0929,-6.1153,-6.1071,-6.1087,-6.1091,-6.1144,-6.1174,-6.12,-6.0854,-6.0853,-6.0851,0,0,-6.1129,-6.1113,-6.1188,-6.1179,-6.1162,-6.1119,-6.1138,-6.1103,-6.1083,-6.1152,-6.1063,-6.1098,-6.1149,-6.1143,-6.1148,-6.1344,-6.1275,-6.1354,-6.148,-6.1539,-6.1563,-6.1585,-6.1654,-6.168,-6.1368,-6.1369,-6.1369,0,-6.1254,-6.1311,-6.1236,-6.129,-6.1297,-6.1189,-6.1265,-6.126,-6.1253,-6.1261,-6.1202,-6.1262,-6.1247,-6.134,-6.1388,-6.1395,-6.1413,-6.1357,-6.1566,-6.1586,-6.1605,-6.1671,-6.1697,-6.1378,-6.1377,-6.1376,-6.1375,0,-6.1465,-6.1506,-6.1569,-6.1563,-6.1577,-6.1642,-6.1577,-6.1601,-6.1548,-6.1513,-6.1584,-6.1561,-6.1577,-6.1595,-6.1545,-6.1682,-6.165,-6.158,-6.1476,-6.1646,-6.1706,-6.173,-6.1392,-6.1389,-6.1386,-6.1383,0,0,-6.1767,-6.1716,-6.174,-6.1735,-6.1708,-6.1739,-6.1799,-6.1813,-6.1835,-6.1833,-6.1882,-6.1927,-6.1861,-6.1866,-6.1815,-6.1866,-6.2022,-6.1789,-6.1788,-6.1833,-6.2171,-6.2223,-6.2253,-6.1976,-6.1981,-6.1984,-6.2171,0,-6.1958,-6.2056,-6.1989,-6.2099,-6.2135,-6.2033,-6.2085,-6.2075,-6.2043,-6.207,-6.2035,-6.2068,-6.1979,-6.1981,-6.2028,-6.1994,-6.2089,-6.1979,-6.2022,-6.2024,-6.2028,-6.2285,-6.2341,-6.2518,-6.2194,-6.2198,-6.2201,0,-6.2193,-6.2199,-6.2313,-6.2276,-6.2289,-6.2337,-6.2344,-6.2371,-6.2357,-6.233,-6.2335,-6.227,-6.2327,-6.2225,-6.2303,-6.223,-6.2243,-6.2229,-6.2234,-6.2236,-6.2123,-6.2293,-6.2573,-6.26,-6.2238,-6.2235,-6.2232,0,-6.2402,-6.2439,-6.251,-6.2509,-6.2469,-6.2505,-6.249,-6.247,-6.2482,-6.2489,-6.2496,-6.251,-6.2518,-6.2531,-6.2471,-6.2403,-6.2557,-6.245,-6.2537,-6.2539,-6.2574,-6.2573,-6.2861,-6.2584,-6.2584,-6.2583,-6.2583,0,-6.2621,-6.2695,-6.2603,-6.2647,-6.2726,-6.2648,-6.2729,-6.2703,-6.2686,-6.2725,-6.2637,-6.2675,-6.2594,-6.2624,-6.2579,-6.265,-6.2654,-6.2635,-6.2622,-6.2642,-6.2645,-6.265,-6.2636,-6.259,-6.2589,-6.2587,-6.2586,0,-6.2868,-6.2809,-6.288,-6.2835,-6.2825,-6.2886,-6.2847,-6.2887,-6.2848,-6.2898,-6.2905,-6.2845,-6.2876,-6.2817,-6.2842,-6.281,-6.291,-6.2878,-6.2915,-6.2905,-6.2995,-6.2987,-6.3296,-6.3332,-6.3033,-6.3036,-6.3039,0,-6.3012,-6.3065,-6.3025,-6.3043,-6.3032,-6.3063,-6.3074,-6.2999,-6.3015,-6.3002,-6.3044,-6.3066,-6.3081,-6.3135,-6.3094,-6.3112,-6.3079,-6.3186,-6.3082,-6.31,-6.308,-6.3078,-6.3083,-6.3208,-6.3212,-6.3215,-6.3217,0,-6.3274,-6.3241,-6.326,-6.3268,-6.3283,-6.3287,-6.3285,-6.3305,-6.3226,-6.3248,-6.3277,-6.3288,-6.331,-6.3335,-6.3342,-6.3328,-6.326,-6.325,-6.3271,-6.3293,-6.3311,-6.3302,-6.2973,-6.3244,-6.3241,-6.3239,-6.3238,-6.3237,-6.3473,-6.3515,-6.3492,-6.3515,-6.3505,-6.3504,-6.3538,-6.3503,-6.3525,-6.3536,-6.3491,-6.3531,-6.3514,-6.3517,-6.351,-6.354,-6.3493,-6.3523,-6.3531,-6.3539,-6.3553,-6.3307,-6.3542,-6.3541,-6.354,-6.3539,-6.3539,0,-6.3729,-6.3709,-6.3731,-6.3728,-6.3747,-6.3679,-6.3672,-6.3693,-6.3727,-6.3717,-6.3732,-6.3765,-6.3787,-6.3748,-6.3765,-6.3796,-6.3766,-6.3803,-6.38,-6.3798,-6.3595,-6.3575,-6.3828,-6.3828,-6.3828,-6.3828,-6.3828,-6.3827,-6.3865,-6.3932,-6.3897,-6.3958,-6.3937,-6.3972,-6.3974,-6.3973,-6.3964,-6.4004,-6.4022,-6.3995,-6.3973,-6.3987,-6.4005,-6.3992,-6.4003,-6.4051,-6.4029,-6.384,-6.3812,-6.3785,-6.3766,-6.4054,-6.4054,-6.4228,-6.4229,-6.4231]},{"header":{"parameterUnit":"m.s-1","parameterCategory":1,"la1":30.2991,"la2":30.254,"lo1":-89.0895,"lo2":-89.0444,"dy":0.0017,"dx":0.0017,"nx":28,"ny":28,"refTime":"2023-10-11T03:00:00:Z","depth":0,"parameterNumber":3,"parameterNumberName":"V-component_of_WINDS"},"data":[0,0,0,0,0,0,0,0,0,0,0,0,0,0,0,0,0,0,0,0,0,0,0,0,0,0,0,0,0,0,0,0,0,0,0,0,0,0,0,0,0,0,0,0,0,0,0,0,0,0,0,0,0,0,0,0,0,0,-9.6044,-9.6043,0,-9.5976,-9.5975,-9.5974,-9.5745,-9.574,-9.5735,-9.573,-9.5665,-9.5668,-9.5671,0,0,0,0,0,0,0,0,0,0,0,0,0,-9.5982,-9.5984,-9.6044,-9.6043,-9.6042,-9.5976,-9.5975,-9.5974,-9.5746,-9.574,-9.5733,-9.5728,-9.5664,-9.5668,-9.5672,0,0,0,0,0,0,0,0,0,0,0,0,0,-9.5971,-9.5985,-9.6044,-9.592,-9.5909,-9.5976,-9.5975,-9.5974,-9.5747,-9.574,-9.5732,-9.5725,-9.5663,-9.5668,-9.5672,-9.5855,0,0,-9.5686,-9.5688,0,0,0,0,0,0,0,0,-9.5972,-9.5974,-9.594,-9.5929,-9.5916,-9.5861,-9.5929,-9.5934,-9.5749,-9.5809,-9.573,-9.5721,-9.5737,-9.5735,-9.5739,-9.5852,-9.5849,-9.5687,-9.5689,-9.5691,-9.5693,0,0,0,0,0,0,0,-9.5973,-9.5975,-9.6017,-9.5939,-9.5925,-9.587,-9.586,-9.5929,-9.5817,-9.5803,-9.5786,-9.5781,-9.5729,-9.5735,-9.5736,-9.5848,-9.5686,-9.5691,-9.5693,-9.5695,-9.6109,-9.6117,0,0,0,0,0,0,-9.5991,-9.5977,-9.6019,-9.6015,-9.5925,-9.5877,-9.5866,-9.5887,-9.5816,-9.5797,-9.5788,-9.5771,-9.5731,-9.5731,-9.5733,-9.5943,-9.5691,-9.5696,-9.5698,-9.6101,-9.6111,-9.612,0,0,0,0,0,0,-9.599,-9.5997,-9.6022,-9.5992,-9.5991,-9.5887,-9.5912,-9.5889,-9.5895,-9.5804,-9.5783,-9.5814,-9.5725,-9.5726,-9.5826,-9.5938,-9.5698,-9.5702,-9.6092,-9.6104,-9.6116,-9.6366,0,0,0,0,0,0,-9.5989,-9.5998,-9.6065,-9.5995,-9.5993,-9.6116,-9.5918,-9.5894,-9.5903,-9.588,-9.5824,-9.5807,-9.5719,-9.5821,-9.5831,-9.594,-9.5706,-9.6081,-9.6097,-9.6112,-9.6348,-9.6386,-9.6418,0,0,0,0,0,-9.5988,-9.6139,-9.607,-9.6076,-9.6075,-9.6123,-9.6122,-9.6016,-9.5913,-9.5981,-9.5922,-9.5809,-9.5924,-9.5833,-9.5843,-9.5955,-9.6074,-9.6093,-9.6111,-9.6332,-9.6378,-9.6418,0,0,0,0,0,0,-9.6227,-9.6128,-9.605,-9.6182,-9.6163,-9.6084,-9.6166,-9.6069,-9.6079,-9.6058,-9.5927,-9.5917,-9.6036,-9.6005,-9.5905,-9.6129,-9.598,-9.6001,-9.6145,-9.6188,-9.6223,-9.6229,-9.5709,0,0,0,0,0,-9.6295,-9.6341,-9.6252,-9.6378,-9.6372,-9.6272,-9.6288,-9.6209,-9.6184,-9.6175,-9.6123,-9.6105,-9.6136,-9.616,-9.6184,-9.6342,-9.6327,-9.6424,-9.6459,-9.6488,-9.6509,-9.6591,-9.6634,-9.6181,-9.6181,-9.618,0,0,-9.6437,-9.6388,-9.6425,-9.6425,-9.64,-9.6452,-9.6266,-9.6328,-9.6366,-9.6184,-9.6275,-9.6238,-9.6208,-9.6338,-9.6393,-9.6316,-9.6631,-9.6512,-9.6536,-9.6541,-9.6615,-9.6658,-9.6696,-9.6194,-9.6191,-9.6189,0,0,-9.6721,-9.6689,-9.679,-9.6769,-9.6733,-9.6665,-9.669,-9.6626,-9.6594,-9.6682,-9.6548,-9.6591,-9.6649,-9.6634,-9.6634,-9.6914,-9.681,-9.6925,-9.711,-9.7192,-9.7228,-9.7259,-9.736,-9.7398,-9.6945,-9.6946,-9.6947,0,-9.6902,-9.6973,-9.6855,-9.6926,-9.6931,-9.6767,-9.687,-9.6856,-9.6831,-9.6839,-9.6753,-9.6822,-9.679,-9.6915,-9.6984,-9.6988,-9.7014,-9.6931,-9.7232,-9.7262,-9.7289,-9.7384,-9.7423,-9.696,-9.6959,-9.6957,-9.6956,0,-9.7198,-9.725,-9.7336,-9.7315,-9.7329,-9.7416,-9.7313,-9.7342,-9.7261,-9.7204,-9.7297,-9.7254,-9.7267,-9.729,-9.7213,-9.7405,-9.7359,-9.7255,-9.7102,-9.7349,-9.7436,-9.7472,-9.6981,-9.6976,-9.6972,-9.6968,0,0,-9.7632,-9.7544,-9.7578,-9.7567,-9.7515,-9.7554,-9.7634,-9.7645,-9.7674,-9.7662,-9.7728,-9.778,-9.7683,-9.7684,-9.7603,-9.7675,-9.7901,-9.7561,-9.7558,-9.7627,-9.8113,-9.8193,-9.8237,-9.7832,-9.7838,-9.7843,-9.8115,0,-9.7903,-9.8034,-9.793,-9.808,-9.8127,-9.7973,-9.8043,-9.802,-9.7969,-9.8002,-9.7945,-9.7985,-9.7853,-9.7853,-9.7917,-9.786,-9.7997,-9.7839,-9.7894,-9.7897,-9.7907,-9.8282,-9.8367,-9.8626,-9.8149,-9.8154,-9.8159,0,-9.8237,-9.8239,-9.8394,-9.8333,-9.8349,-9.8414,-9.8416,-9.845,-9.8422,-9.8379,-9.838,-9.828,-9.8357,-9.8207,-9.8312,-9.8207,-9.8223,-9.8199,-9.8207,-9.8209,-9.8044,-9.8297,-9.8705,-9.8746,-9.8211,-9.8207,-9.8203,0,-9.854,-9.8582,-9.868,-9.8675,-9.8606,-9.8656,-9.863,-9.8593,-9.8607,-9.861,-9.8618,-9.8631,-9.8638,-9.8651,-9.8558,-9.8457,-9.8676,-9.8518,-9.8645,-9.8648,-9.8699,-9.8698,-9.9119,-9.8708,-9.8707,-9.8707,-9.8706,0,-9.8855,-9.8956,-9.8815,-9.8876,-9.8986,-9.8866,-9.8978,-9.8936,-9.8905,-9.8957,-9.8824,-9.8875,-9.8748,-9.8788,-9.8715,-9.8815,-9.8819,-9.8788,-9.8768,-9.8801,-9.8805,-9.8811,-9.8791,-9.8717,-9.8715,-9.8713,-9.8711,0,-9.9213,-9.9122,-9.9219,-9.9145,-9.9129,-9.9214,-9.9151,-9.9206,-9.9144,-9.9211,-9.922,-9.9126,-9.9165,-9.9073,-9.9099,-9.905,-9.9193,-9.9143,-9.9202,-9.9188,-9.9321,-9.9311,-9.9762,-9.9816,-9.937,-9.9374,-9.9377,0,-9.942,-9.9494,-9.9428,-9.9452,-9.9433,-9.9473,-9.9486,-9.9372,-9.9391,-9.9365,-9.9423,-9.9451,-9.9467,-9.9537,-9.9472,-9.9492,-9.9443,-9.9599,-9.9445,-9.9476,-9.9447,-9.9445,-9.9453,-9.9632,-9.9638,-9.9642,-9.9646,0,-9.9799,-9.975,-9.9773,-9.9781,-9.98,-9.9801,-9.9793,-9.9821,-9.9698,-9.9727,-9.9765,-9.9777,-9.9803,-9.9833,-9.9838,-9.9813,-9.9712,-9.9695,-9.9725,-9.9761,-9.9793,-9.9779,-9.9291,-9.9685,-9.9681,-9.9678,-9.9676,-9.9675,-10.0088,-10.0147,-10.011,-10.0141,-10.0122,-10.0118,-10.0165,-10.011,-10.0138,-10.0149,-10.008,-10.0134,-10.0104,-10.01,-10.0086,-10.0127,-10.0056,-10.0101,-10.0112,-10.0126,-10.0148,-9.9785,-10.0128,-10.0126,-10.0125,-10.0124,-10.0123,0,-10.0462,-10.043,-10.0459,-10.0451,-10.0476,-10.0374,-10.036,-10.0388,-10.0436,-10.0416,-10.0434,-10.0479,-10.0507,-10.0444,-10.0464,-10.0509,-10.0463,-10.0518,-10.0515,-10.0511,-10.0209,-10.0182,-10.0555,-10.0555,-10.0555,-10.0555,-10.0555,-10.0555,-10.0659,-10.0754,-10.0701,-10.0786,-10.0753,-10.0803,-10.0804,-10.08,-10.0784,-10.0839,-10.0861,-10.0819,-10.0783,-10.0799,-10.0821,-10.0802,-10.0817,-10.0889,-10.0855,-10.0574,-10.0532,-10.0492,-10.0465,-10.0893,-10.0893,-10.1153,-10.1155,-10.1157]}]]